METEOR 2-17 DEB, 28990

Orbit data source: Space-Track

METEOR 2-17 DEB, 28990 is space debris in LEO originally from a launch on Sat, 30 Jan 1988 UTC launched from the Plesetsk Missile And Space Complex (PKMTR). Debris objects in space refer to the collection of defunct objects orbiting the Earth. Examples of debris include non-operational satellites, rocket bodies, and fragments generated from explosions, collisions, or faulty payload assembly.

Loading next visibility...
Identifier
28990, 1988-005E
Orbit
LEO
Country
Flag of CISCIS
Related business
Manufacturer
Unknown
Mission
Spacecraft
Bus & Motor
Unknown
Mass
Unknown
Launch date (UTC)
1988-01-30 (38 years ago)
Launch vehicle
Unknown
Launch site
Plesetsk Missile And Space Complex (PKMTR)
Object type
Payload
Rocket body
Debris
Shape & HBR
Unknown shape, 0.1 m
Radar Cross Section
Small (<0.1 m²)

Expand to show TLE details & history
Last TLE update: 6 days ago

TLE from 6 days ago
0 METEOR 2-17 DEB
1 28990U 88005E   25301.06420584  .00003591  00000-0  22880-2 0  9999
2 28990  82.5142  65.3908 0014173 102.4845 257.7912 14.03340514573174
Epoch: 2025-10-28T01:32Z
TLE epoch observation values (Epoch: 2025-10-28T01:32:27.384Z)
Latitude
-0.00007°
Longitude
5.61963°
Altitude
887.369 km
Speed
7.407 km/s
True Right ascension
04h 21m 33s
True Declination
0° 00' 00"
Sunlit
Object was in full shadow at epoch
Visualization orbit readout
Latitude
Unknown
Longitude
Unknown
Altitude
Unknown
Speed
Unknown
Apparent Right ascension
Unknown
Apparent Declination
Unknown
Sunlit
N/A
Visualization observer readout
Local Sidereal Time
07:27:13
Azimuth
Unknown
Elevation
Unknown
Doppler factor
Unknown
Orbital elements
Apogee altitude
889.663 km
Perigee altitude
869.091 km
Semi-major axis
7,257.514 km
Eccentricity
0.00142
Inclination
82.5142°
RAAN
65.3908°
Arg. of periapsis
102.4845°
True anomaly
257.63252°
Mean anomaly
257.7912°
Eccentric anomaly
257.71186°
Mean motion
3.51044 °/min
Orbital period
102.55 mins
BSTAR
0.002288
Loading maneuver chart data...
Computing Atmospheric mass density...
Loading historical data...
Loading historical data...
Loading historical data...
Loading historical data...
Loading historical data...
Loading historical data...
Loading historical data...

Documentation

Showing up to 5 results
|